"Period start","avg(HW err(1)/warn(2) (#))","avg(Visibility (m))","avg(Weather code (#))","avg(Precip intensity (mm/h))","min(HW err(1)/warn(2) (#))","max(HW err(1)/warn(2) (#))","std(HW err(1)/warn(2) (#))","med(HW err(1)/warn(2) (#))","min(Visibility (m))","max(Visibility (m))","std(Visibility (m))","med(Visibility (m))","min(Weather code (#))","max(Weather code (#))","std(Weather code (#))","med(Weather code (#))","min(Precip intensity (mm/h))","max(Precip intensity (mm/h))","std(Precip intensity (mm/h))","med(Precip intensity (mm/h))"
2016-03-18 00:00:00,1,,,,1,1,0,1,,,,,,,,,,,,
2016-03-18 00:10:00,1,,,,1,1,0,1,,,,,,,,,,,,
2016-03-18 00:20:00,1,,,,1,1,0,1,,,,,,,,,,,,
2016-03-18 00:30:00,1,,,,1,1,0,1,,,,,,,,,,,,
2016-03-18 00:40:00,1,,,,1,1,0,1,,,,,,,,,,,,
2016-03-18 00:50:00,1,,,,1,1,0,1,,,,,,,,,,,,
2016-03-18 01:00:00,1,35384,,0.00,1,2,0,1,16855,47482,12197,38600,,,,,0.00,0.00,0.00,0.00
2016-03-18 01:10:00,2,45693,0,0.00,2,2,0,2,32718,50000,6250,48893,0,0,0,0,0.00,0.00,0.00,0.00
2016-03-18 01:20:00,2,29274,0,0.00,2,2,0,2,13507,38510,7005,30954,0,0,0,0,0.00,0.00,0.00,0.00
2016-03-18 01:30:00,2,39029,0,0.00,2,2,0,2,24191,50000,9106,40207,0,0,0,0,0.00,0.00,0.00,0.00
2016-03-18 01:40:00,2,34882,0,0.00,2,2,0,2,20715,46689,9091,32358,0,0,0,0,0.00,0.00,0.00,0.00
2016-03-18 01:50:00,2,36870,0,0.00,2,2,0,2,21020,50000,10462,38998,0,0,0,0,0.00,0.00,0.00,0.00
2016-03-18 02:00:00,2,29767,0,0.00,2,2,0,2,21223,50000,7645,28360,0,0,0,0,0.00,0.00,0.00,0.00
2016-03-18 02:10:00,2,35929,0,0.00,2,2,0,2,20841,49656,8540,37866,0,0,0,0,0.00,0.00,0.00,0.00
2016-03-18 02:20:00,2,37994,0,0.00,2,2,0,2,24379,50000,8929,40992,0,0,0,0,0.00,0.00,0.00,0.00
2016-03-18 02:30:00,2,35150,0,0.00,2,2,0,2,19902,50000,8478,35070,0,0,0,0,0.00,0.00,0.00,0.00
2016-03-18 02:40:00,2,35699,0,0.00,2,2,0,2,24998,50000,9113,32868,0,0,0,0,0.00,0.00,0.00,0.00
2016-03-18 02:50:00,2,34940,0,0.00,2,2,0,2,24315,43829,5738,36832,0,0,0,0,0.00,0.00,0.00,0.00
2016-03-18 03:00:00,2,40972,0,0.00,2,2,0,2,27693,50000,9189,42251,0,0,0,0,0.00,0.00,0.00,0.00
2016-03-18 03:10:00,2,42042,0,0.00,1,2,0,2,30430,48759,6092,44247,0,0,0,0,0.00,0.00,0.00,0.00
2016-03-18 03:20:00,2,47089,,0.00,1,2,0,2,38562,50000,4418,49907,,,,,0.00,0.00,0.00,0.00
2016-03-18 03:30:00,2,38277,0,0.00,2,2,0,2,27211,50000,7181,37840,0,0,0,0,0.00,0.00,0.00,0.00
2016-03-18 03:40:00,2,43559,0,0.00,2,2,0,2,31581,49100,4877,45083,0,0,0,0,0.00,0.00,0.00,0.00
2016-03-18 03:50:00,2,40411,0,0.00,2,2,0,2,27615,49936,7087,42545,0,0,0,0,0.00,0.00,0.00,0.00
2016-03-18 04:00:00,2,35088,0,0.00,2,2,0,2,19843,50000,10410,36480,0,0,0,0,0.00,0.00,0.00,0.00
2016-03-18 04:10:00,2,38148,0,0.00,2,2,0,2,25792,50000,7761,37066,0,0,0,0,0.00,0.00,0.00,0.00
2016-03-18 04:20:00,2,35168,0,0.00,2,2,0,2,22124,44945,7515,34752,0,0,0,0,0.00,0.00,0.00,0.00
2016-03-18 04:30:00,2,40688,0,0.00,2,2,0,2,26195,50000,7304,40108,0,0,0,0,0.00,0.00,0.00,0.00
2016-03-18 04:40:00,2,38644,0,0.00,2,2,0,2,26667,50000,7236,39030,0,0,0,0,0.00,0.00,0.00,0.00
2016-03-18 04:50:00,2,40395,0,0.00,2,2,0,2,22838,50000,7548,41428,0,0,0,0,0.00,0.00,0.00,0.00
2016-03-18 05:00:00,2,35780,0,0.00,2,2,0,2,27786,45582,5013,36087,0,0,0,0,0.00,0.00,0.00,0.00
2016-03-18 05:10:00,2,40533,0,0.00,2,2,0,2,21728,50000,9548,44312,0,0,0,0,0.00,0.00,0.00,0.00
2016-03-18 05:20:00,2,40443,0,0.00,2,2,0,2,31260,48652,6534,42516,0,0,0,0,0.00,0.00,0.00,0.00
2016-03-18 05:30:00,2,41637,0,0.00,2,2,0,2,31878,48842,4877,40393,0,0,0,0,0.00,0.00,0.00,0.00
2016-03-18 05:40:00,2,45975,0,0.00,2,2,0,2,41501,50000,2553,45948,0,0,0,0,0.00,0.00,0.00,0.00
2016-03-18 05:50:00,2,47854,0,0.00,2,2,0,2,39591,50000,3259,49812,0,0,0,0,0.00,0.00,0.00,0.00
2016-03-18 06:00:00,2,48312,0,0.00,2,2,0,2,42894,50000,2432,50000,0,0,0,0,0.00,0.00,0.00,0.00
2016-03-18 06:10:00,2,48748,0,0.00,2,2,0,2,45223,50000,1925,50000,0,0,0,0,0.00,0.00,0.00,0.00
2016-03-18 06:20:00,2,49759,0,0.00,2,2,0,2,48873,50000,374,49978,0,0,0,0,0.00,0.00,0.00,0.00
2016-03-18 06:30:00,2,47538,0,0.00,2,2,0,2,33181,50000,5212,50000,0,0,0,0,0.00,0.00,0.00,0.00
2016-03-18 06:40:00,2,48157,0,0.00,2,2,0,2,39827,50000,2904,48824,0,0,0,0,0.00,0.00,0.00,0.00
2016-03-18 06:50:00,2,48686,0,0.00,2,2,0,2,44612,50000,1874,50000,0,0,0,0,0.00,0.00,0.00,0.00
2016-03-18 07:00:00,2,47906,0,0.00,2,2,0,2,41919,50000,3210,50000,0,0,0,0,0.00,0.00,0.00,0.00
2016-03-18 07:10:00,2,47175,0,0.00,2,2,0,2,40915,50000,3071,47780,0,0,0,0,0.00,0.00,0.00,0.00
2016-03-18 07:20:00,2,45185,0,0.00,2,2,0,2,36105,50000,4365,46142,0,0,0,0,0.00,0.00,0.00,0.00
2016-03-18 07:30:00,2,49826,0,0.00,2,2,0,2,48855,50000,369,50000,0,0,0,0,0.00,0.00,0.00,0.00
2016-03-18 07:40:00,2,48948,0,0.00,2,2,0,2,46502,50000,1346,50000,0,0,0,0,0.00,0.00,0.00,0.00
2016-03-18 07:50:00,2,48941,0,0.00,2,2,0,2,43235,50000,2054,50000,0,0,0,0,0.00,0.00,0.00,0.00
2016-03-18 08:00:00,2,49443,0,0.00,2,2,0,2,47009,50000,1118,50000,0,0,0,0,0.00,0.00,0.00,0.00
2016-03-18 08:10:00,2,49150,0,0.00,2,2,0,2,45687,50000,1447,50000,0,0,0,0,0.00,0.00,0.00,0.00
2016-03-18 08:20:00,2,48599,0,0.00,2,2,0,2,45898,50000,1534,49132,0,0,0,0,0.00,0.00,0.00,0.00
2016-03-18 08:30:00,2,48605,0,0.00,2,2,0,2,45616,50000,1545,49341,0,0,0,0,0.00,0.00,0.00,0.00
2016-03-18 08:40:00,2,49087,0,0.00,2,2,0,2,44854,50000,1845,50000,0,0,0,0,0.00,0.00,0.00,0.00
2016-03-18 08:50:00,2,48204,0,0.00,2,2,0,2,42631,50000,2451,49862,0,0,0,0,0.00,0.00,0.00,0.00
2016-03-18 09:00:00,2,49264,0,0.00,2,2,0,2,44307,50000,1688,50000,0,0,0,0,0.00,0.00,0.00,0.00
2016-03-18 09:10:00,2,49801,0,0.00,2,2,0,2,48599,50000,419,50000,0,0,0,0,0.00,0.00,0.00,0.00
2016-03-18 09:20:00,2,50000,0,0.00,2,2,0,2,50000,50000,0,50000,0,0,0,0,0.00,0.00,0.00,0.00
2016-03-18 09:30:00,2,49330,0,0.00,2,2,0,2,46481,50000,1339,50000,0,0,0,0,0.00,0.00,0.00,0.00
2016-03-18 09:40:00,2,50000,0,0.00,2,2,0,2,50000,50000,0,50000,0,0,0,0,0.00,0.00,0.00,0.00
2016-03-18 09:50:00,2,49811,0,0.00,2,2,0,2,48110,50000,567,50000,0,0,0,0,0.00,0.00,0.00,0.00
2016-03-18 10:00:00,2,49991,0,0.00,2,2,0,2,49910,50000,27,50000,0,0,0,0,0.00,0.00,0.00,0.00
2016-03-18 10:10:00,2,49768,0,0.00,2,2,0,2,48568,50000,480,50000,0,0,0,0,0.00,0.00,0.00,0.00
2016-03-18 10:20:00,2,50000,0,0.00,2,2,0,2,50000,50000,0,50000,0,0,0,0,0.00,0.00,0.00,0.00
2016-03-18 10:30:00,2,49943,0,0.00,2,2,0,2,49429,50000,171,50000,0,0,0,0,0.00,0.00,0.00,0.00
2016-03-18 10:40:00,2,49899,0,0.00,2,2,0,2,48991,50000,303,50000,0,0,0,0,0.00,0.00,0.00,0.00
2016-03-18 10:50:00,2,49994,0,0.00,2,2,0,2,49945,50000,16,50000,0,0,0,0,0.00,0.00,0.00,0.00
2016-03-18 11:00:00,2,50000,0,0.00,2,2,0,2,50000,50000,0,50000,0,0,0,0,0.00,0.00,0.00,0.00
2016-03-18 11:10:00,2,50000,0,0.00,2,2,0,2,50000,50000,0,50000,0,0,0,0,0.00,0.00,0.00,0.00
2016-03-18 11:20:00,2,50000,0,0.00,2,2,0,2,50000,50000,0,50000,0,0,0,0,0.00,0.00,0.00,0.00
2016-03-18 11:30:00,2,49651,0,0.00,2,2,0,2,48036,50000,705,50000,0,0,0,0,0.00,0.00,0.00,0.00
2016-03-18 11:40:00,2,49928,0,0.00,2,2,0,2,49513,50000,154,50000,0,0,0,0,0.00,0.00,0.00,0.00
2016-03-18 11:50:00,2,49943,0,0.00,2,2,0,2,49430,50000,171,50000,0,0,0,0,0.00,0.00,0.00,0.00
2016-03-18 12:00:00,2,50000,0,0.00,2,2,0,2,50000,50000,0,50000,0,0,0,0,0.00,0.00,0.00,0.00
2016-03-18 12:10:00,2,50000,0,0.00,2,2,0,2,50000,50000,0,50000,0,0,0,0,0.00,0.00,0.00,0.00
2016-03-18 12:20:00,2,50000,0,0.00,2,2,0,2,50000,50000,0,50000,0,0,0,0,0.00,0.00,0.00,0.00
2016-03-18 12:30:00,2,50000,0,0.00,2,2,0,2,50000,50000,0,50000,0,0,0,0,0.00,0.00,0.00,0.00
2016-03-18 12:40:00,2,49826,0,0.00,2,2,0,2,48261,50000,522,50000,0,0,0,0,0.00,0.00,0.00,0.00
2016-03-18 12:50:00,2,49836,0,0.00,2,2,0,2,48882,50000,354,50000,0,0,0,0,0.00,0.00,0.00,0.00
2016-03-18 13:00:00,2,50000,0,0.00,2,2,0,2,50000,50000,0,50000,0,0,0,0,0.00,0.00,0.00,0.00
2016-03-18 13:10:00,2,49656,0,0.00,2,2,0,2,47519,50000,745,50000,0,0,0,0,0.00,0.00,0.00,0.00
2016-03-18 13:20:00,2,50000,0,0.00,2,2,0,2,50000,50000,0,50000,0,0,0,0,0.00,0.00,0.00,0.00
2016-03-18 13:30:00,2,49917,0,0.00,2,2,0,2,49172,50000,248,50000,0,0,0,0,0.00,0.00,0.00,0.00
2016-03-18 13:40:00,2,50000,0,0.00,2,2,0,2,50000,50000,0,50000,0,0,0,0,0.00,0.00,0.00,0.00
2016-03-18 13:50:00,2,50000,0,0.00,2,2,0,2,50000,50000,0,50000,0,0,0,0,0.00,0.00,0.00,0.00
2016-03-18 14:00:00,2,50000,0,0.00,2,2,0,2,50000,50000,0,50000,0,0,0,0,0.00,0.00,0.00,0.00
2016-03-18 14:10:00,2,50000,0,0.00,2,2,0,2,50000,50000,0,50000,0,0,0,0,0.00,0.00,0.00,0.00
2016-03-18 14:20:00,2,50000,0,0.00,2,2,0,2,50000,50000,0,50000,0,0,0,0,0.00,0.00,0.00,0.00
2016-03-18 14:30:00,2,50000,0,0.00,2,2,0,2,50000,50000,0,50000,0,0,0,0,0.00,0.00,0.00,0.00
2016-03-18 14:40:00,2,50000,0,0.00,2,2,0,2,50000,50000,0,50000,0,0,0,0,0.00,0.00,0.00,0.00
2016-03-18 14:50:00,2,50000,0,0.00,2,2,0,2,50000,50000,0,50000,0,0,0,0,0.00,0.00,0.00,0.00
2016-03-18 15:00:00,2,50000,0,0.00,2,2,0,2,50000,50000,0,50000,0,0,0,0,0.00,0.00,0.00,0.00
2016-03-18 15:10:00,2,50000,0,0.00,2,2,0,2,50000,50000,0,50000,0,0,0,0,0.00,0.00,0.00,0.00
2016-03-18 15:20:00,2,50000,0,0.00,2,2,0,2,50000,50000,0,50000,0,0,0,0,0.00,0.00,0.00,0.00
2016-03-18 15:30:00,2,49995,0,0.00,2,2,0,2,49950,50000,15,50000,0,0,0,0,0.00,0.00,0.00,0.00
2016-03-18 15:40:00,2,50000,0,0.00,2,2,0,2,50000,50000,0,50000,0,0,0,0,0.00,0.00,0.00,0.00
2016-03-18 15:50:00,2,49975,0,0.00,2,2,0,2,49752,50000,74,50000,0,0,0,0,0.00,0.00,0.00,0.00
2016-03-18 16:00:00,2,50000,0,0.00,2,2,0,2,50000,50000,0,50000,0,0,0,0,0.00,0.00,0.00,0.00
2016-03-18 16:10:00,2,43753,0,0.00,2,2,0,2,25301,50000,9194,50000,0,0,0,0,0.00,0.00,0.00,0.00
2016-03-18 16:20:00,2,50000,0,0.00,2,2,0,2,50000,50000,0,50000,0,0,0,0,0.00,0.00,0.00,0.00
2016-03-18 16:30:00,2,50000,0,0.00,2,2,0,2,50000,50000,0,50000,0,0,0,0,0.00,0.00,0.00,0.00
2016-03-18 16:40:00,2,50000,0,0.00,2,2,0,2,50000,50000,0,50000,0,0,0,0,0.00,0.00,0.00,0.00
2016-03-18 16:50:00,2,50000,0,0.00,2,2,0,2,50000,50000,0,50000,0,0,0,0,0.00,0.00,0.00,0.00
2016-03-18 17:00:00,2,50000,0,0.00,2,2,0,2,50000,50000,0,50000,0,0,0,0,0.00,0.00,0.00,0.00
2016-03-18 17:10:00,2,50000,0,0.00,2,2,0,2,50000,50000,0,50000,0,0,0,0,0.00,0.00,0.00,0.00
2016-03-18 17:20:00,2,50000,0,0.00,2,2,0,2,50000,50000,0,50000,0,0,0,0,0.00,0.00,0.00,0.00
2016-03-18 17:30:00,2,50000,0,0.00,2,2,0,2,50000,50000,0,50000,0,0,0,0,0.00,0.00,0.00,0.00
2016-03-18 17:40:00,2,50000,0,0.00,2,2,0,2,50000,50000,0,50000,0,0,0,0,0.00,0.00,0.00,0.00
2016-03-18 17:50:00,2,50000,0,0.00,2,2,0,2,50000,50000,0,50000,0,0,0,0,0.00,0.00,0.00,0.00
2016-03-18 18:00:00,2,50000,0,0.00,2,2,0,2,50000,50000,0,50000,0,0,0,0,0.00,0.00,0.00,0.00
2016-03-18 18:10:00,2,50000,0,0.00,2,2,0,2,50000,50000,0,50000,0,0,0,0,0.00,0.00,0.00,0.00
2016-03-18 18:20:00,2,50000,0,0.00,2,2,0,2,50000,50000,0,50000,0,0,0,0,0.00,0.00,0.00,0.00
2016-03-18 18:30:00,2,50000,0,0.00,2,2,0,2,50000,50000,0,50000,0,0,0,0,0.00,0.00,0.00,0.00
2016-03-18 18:40:00,2,50000,0,0.00,2,2,0,2,50000,50000,0,50000,0,0,0,0,0.00,0.00,0.00,0.00
2016-03-18 18:50:00,2,50000,0,0.00,2,2,0,2,50000,50000,0,50000,0,0,0,0,0.00,0.00,0.00,0.00
2016-03-18 19:00:00,2,50000,0,0.00,2,2,0,2,50000,50000,0,50000,0,0,0,0,0.00,0.00,0.00,0.00
2016-03-18 19:10:00,2,50000,0,0.00,2,2,0,2,50000,50000,0,50000,0,0,0,0,0.00,0.00,0.00,0.00
2016-03-18 19:20:00,2,50000,0,0.00,2,2,0,2,50000,50000,0,50000,0,0,0,0,0.00,0.00,0.00,0.00
2016-03-18 19:30:00,2,50000,0,0.00,2,2,0,2,50000,50000,0,50000,0,0,0,0,0.00,0.00,0.00,0.00
2016-03-18 19:40:00,2,50000,0,0.00,2,2,0,2,50000,50000,0,50000,0,0,0,0,0.00,0.00,0.00,0.00
2016-03-18 19:50:00,2,50000,0,0.00,2,2,0,2,50000,50000,0,50000,0,0,0,0,0.00,0.00,0.00,0.00
2016-03-18 20:00:00,2,50000,0,0.00,2,2,0,2,50000,50000,0,50000,0,0,0,0,0.00,0.00,0.00,0.00
2016-03-18 20:10:00,2,50000,0,0.00,2,2,0,2,50000,50000,0,50000,0,0,0,0,0.00,0.00,0.00,0.00
2016-03-18 20:20:00,2,50000,0,0.00,2,2,0,2,50000,50000,0,50000,0,0,0,0,0.00,0.00,0.00,0.00
2016-03-18 20:30:00,2,50000,0,0.00,2,2,0,2,50000,50000,0,50000,0,0,0,0,0.00,0.00,0.00,0.00
2016-03-18 20:40:00,2,50000,0,0.00,2,2,0,2,50000,50000,0,50000,0,0,0,0,0.00,0.00,0.00,0.00
2016-03-18 20:50:00,2,50000,0,0.00,2,2,0,2,50000,50000,0,50000,0,0,0,0,0.00,0.00,0.00,0.00
2016-03-18 21:00:00,2,49963,0,0.00,2,2,0,2,49631,50000,111,50000,0,0,0,0,0.00,0.00,0.00,0.00
2016-03-18 21:10:00,2,50000,0,0.00,2,2,0,2,50000,50000,0,50000,0,0,0,0,0.00,0.00,0.00,0.00
2016-03-18 21:20:00,2,49991,0,0.00,2,2,0,2,49912,50000,26,50000,0,0,0,0,0.00,0.00,0.00,0.00
2016-03-18 21:30:00,2,50000,0,0.00,2,2,0,2,50000,50000,0,50000,0,0,0,0,0.00,0.00,0.00,0.00
2016-03-18 21:40:00,2,49404,0,0.00,2,2,0,2,47369,50000,850,49920,0,0,0,0,0.00,0.00,0.00,0.00
2016-03-18 21:50:00,2,49895,0,0.00,2,2,0,2,48947,50000,316,50000,0,0,0,0,0.00,0.00,0.00,0.00
2016-03-18 22:00:00,2,49788,0,0.00,2,2,0,2,47878,50000,637,50000,0,0,0,0,0.00,0.00,0.00,0.00
2016-03-18 22:10:00,2,49997,0,0.00,2,2,0,2,49968,50000,10,50000,0,0,0,0,0.00,0.00,0.00,0.00
2016-03-18 22:20:00,2,49625,0,0.00,2,2,0,2,46247,50000,1126,50000,0,0,0,0,0.00,0.00,0.00,0.00
2016-03-18 22:30:00,2,49410,0,0.00,2,2,0,2,45491,50000,1359,50000,0,0,0,0,0.00,0.00,0.00,0.00
2016-03-18 22:40:00,2,47015,0,0.00,2,2,0,2,36444,50000,4984,50000,0,0,0,0,0.00,0.00,0.00,0.00
2016-03-18 22:50:00,2,49608,0,0.00,2,2,0,2,46085,50000,1174,50000,0,0,0,0,0.00,0.00,0.00,0.00
2016-03-18 23:00:00,2,49127,0,0.00,2,2,0,2,46148,50000,1176,49634,0,0,0,0,0.00,0.00,0.00,0.00
2016-03-18 23:10:00,2,48167,0,0.00,2,2,0,2,42193,50000,3061,50000,0,0,0,0,0.00,0.00,0.00,0.00
2016-03-18 23:20:00,2,45511,0,0.00,2,2,0,2,38444,50000,4027,45371,0,0,0,0,0.00,0.00,0.00,0.00
2016-03-18 23:30:00,2,43805,0,0.00,2,2,0,2,35580,50000,5522,43364,0,0,0,0,0.00,0.00,0.00,0.00
2016-03-18 23:40:00,2,31289,0,0.00,2,2,0,2,16642,50000,8794,28664,0,0,0,0,0.00,0.00,0.00,0.00
2016-03-18 23:50:00,2,43572,0,0.00,2,2,0,2,26892,50000,7792,47382,0,0,0,0,0.00,0.00,0.00,0.00
